DW5462 Weather Reports


time (UTC)temp
C
wind
direction
speed
KPH
gust
KPH
rain 1hr
cm
rain 24hr
cm
rain mn
cm
humidity
%
barometer
mb
20260507134509 11 261 1.6 12.9 0.00 0.79 0.15 83 1015.9
20260507133149 11 273 1.6 11.3 0.00 0.79 0.15 83 1016.0
20260507131505 10 267 1.6 9.7 0.00 0.79 0.15 84 1015.9
20260507130002 10 288 0.0 8.0 0.00 0.79 0.15 85 1015.8
20260507124500 10 269 0.0 3.2 0.00 0.79 0.15 87 1015.7
20260507123059 10 279 0.0 11.3 0.00 0.79 0.15 87 1015.7
20260507121557 10 238 0.0 11.3 0.00 0.79 0.15 89 1015.5
20260507120054 10 336 0.0 4.8 0.00 0.79 0.15 91 1015.3
20260507114605 10 265 0.0 4.8 0.00 0.79 0.15 93 1015.4
20260507113050 9 254 3.2 14.5 0.00 0.79 0.15 94 1015.3
20260507111547 8 259 0.0 12.9 0.00 0.79 0.15 95 1015.4
20260507110046 8 260 0.0 8.0 0.00 0.79 0.15 95 1015.4
20260507104545 8 257 0.0 0.0 0.00 0.79 0.15 95 1015.4
20260507103048 8 257 0.0 0.0 0.00 0.79 0.15 95 1015.4
20260507101548 8 257 0.0 0.0 0.00 0.79 0.15 95 1015.3
20260507100044 8 257 0.0 8.0 0.00 0.79 0.15 95 1015.2
20260507094554 8 270 0.0 3.2 0.03 0.79 0.15 95 1015.1
20260507093041 8 269 0.0 9.7 0.03 0.79 0.15 96 1014.9
20260507091539 8 265 0.0 9.7 0.03 0.79 0.15 96 1014.8
20260507090037 7 265 0.0 4.8 0.05 0.79 0.15 96 1014.6
20260507084539 7 267 0.0 12.9 0.05 0.79 0.15 95 1014.4
20260507083034 7 267 1.6 11.3 0.03 0.79 0.13 95 1014.3
20260507081537 7 257 1.6 9.7 0.03 0.79 0.13 95 1014.1
20260507080030 7 256 0.0 8.0 0.03 0.79 0.13 95 1013.9
20260507074528 7 267 0.0 4.8 0.00 0.76 0.10 95 1013.7
20260507073027 7 263 0.0 14.5 0.00 0.76 0.10 95 1013.5
20260507071526 8 276 0.0 9.7 0.00 0.76 0.10 95 1013.3
20260507070038 7 286 1.6 11.3 0.03 0.76 0.10 95 1013.2
20260507064520 7 256 0.0 8.0 0.03 0.76 0.10 95 1013.0
20260507063017 7 251 0.0 9.7 0.05 0.76 0.10 95 1012.9
20260507061515 8 255 1.6 8.0 0.05 0.76 0.10 95 1012.8
20260507060016 8 271 0.0 8.0 0.03 0.71 0.08 95 1012.6
20260507054511 8 269 0.0 8.0 0.03 0.71 0.08 95 1012.3
20260507053011 8 269 1.6 11.3 0.03 0.71 0.05 95 1012.2
20260507051513 8 268 1.6 9.7 0.03 0.71 0.05 95 1012.1
20260507050015 8 281 0.0 6.4 0.03 0.71 0.05 95 1011.9
20260507044506 8 281 1.6 9.7 0.05 0.71 0.05 95 1011.7
20260507043002 8 260 4.8 14.5 0.03 0.71 0.05 95 1011.5
20260507041559 8 279 1.6 11.3 0.03 0.71 0.05 95 1011.3
20260507034602 8 271 0.0 11.3 0.00 0.69 0.03 95 1010.9
20260507033107 8 274 0.0 11.3 0.00 0.69 0.03 95 1010.9
20260507031602 8 279 1.6 9.7 0.00 0.69 0.03 95 1010.7
20260507030108 8 282 0.0 6.4 0.00 0.69 0.03 95 1010.7
20260507024609 8 275 0.0 6.4 0.00 0.69 0.03 95 1010.6
20260507023053 8 275 0.0 1.6 0.00 0.69 0.03 95 1010.6
20260507021555 8 274 0.0 3.2 0.00 0.69 0.03 95 1010.5
20260507020056 8 279 0.0 1.6 0.00 0.69 0.03 95 1010.5
20260507014555 8 279 0.0 9.7 0.00 0.69 0.03 95 1010.5
20260507013045 8 278 0.0 8.0 0.00 0.69 0.03 95 1010.3
20260507011548 8 278 0.0 8.0 0.00 0.69 0.03 95 1010.2
20260507010045 8 267 0.0 8.0 0.00 0.69 0.03 95 1010.2
20260507004543 8 265 0.0 11.3 0.00 0.69 0.03 95 1010.2
20260507003043 8 266 0.0 0.0 0.00 0.69 0.03 94 1010.2
20260507001542 8 266 0.0 3.2 0.00 0.69 0.03 94 1010.2
20260507000041 8 266 0.0 6.4 0.00 0.69 0.03 95 1010.2
20260506234552 8 263 0.0 8.0 0.00 0.69 0.03 94 1010.2
20260506233047 8 271 0.0 6.4 0.00 0.69 0.03 95 1010.2
20260506231537 8 267 0.0 8.0 0.00 0.69 0.03 95 1010.2
20260506230038 8 270 0.0 4.8 0.03 0.69 0.03 95 1010.2
20260506224540 8 281 1.6 8.0 0.03 0.69 0.03 95 1010.2
20260506223033 8 273 1.6 12.9 0.03 0.69 0.03 94 1010.1
20260506221531 8 282 1.6 9.7 0.05 0.69 0.03 95 1009.9
20260506220029 8 266 0.0 8.0 0.03 0.66 0.00 95 1009.8
20260506214526 8 281 1.6 9.7 0.03 0.66 0.66 95 1009.7
20260506213028 9 277 1.6 14.5 0.03 0.66 0.66 95 1009.5
20260506211530 9 265 3.2 14.5 0.00 0.64 0.64 94 1009.5
20260506210033 9 281 3.2 16.1 0.00 0.64 0.64 94 1009.4
20260506204528 9 282 0.0 12.9 0.03 0.64 0.64 94 1009.3
20260506203035 9 263 0.0 11.3 0.05 0.64 0.64 94 1009.3
20260506201526 10 275 0.0 8.0 0.05 0.64 0.64 94 1009.0
20260506200024 10 279 0.0 6.4 0.05 0.64 0.64 94 1009.0
20260506194522 10 281 0.0 4.8 0.05 0.61 0.61 94 1008.8
20260506193020 10 279 0.0 0.0 0.03 0.61 0.61 94 1008.6
20260506191521 10 274 0.0 6.4 0.05 0.61 0.61 94 1008.3
20260506190019 10 256 1.6 9.7 0.05 0.61 0.61 94 1008.0
20260506184518 10 275 0.0 4.8 0.05 0.61 0.58 94 1007.9
20260506183017 10 273 0.0 6.4 0.05 0.61 0.58 94 1007.8
20260506181516 10 258 1.6 11.3 0.10 0.61 0.56 94 1007.6
20260506180017 10 265 0.0 6.4 0.15 0.61 0.56 93 1007.5
20260506174514 10 264 0.0 6.4 0.23 0.61 0.53 93 1007.3
20260506173018 10 270 1.6 9.7 0.23 0.58 0.51 93 1007.4
20260506171515 10 270 0.0 8.0 0.23 0.53 0.48 93 1007.3
20260506170013 10 269 1.6 12.9 0.20 0.46 0.41 92 1007.2
20260506164511 11 265 0.0 8.0 0.15 0.38 0.33 92 1007.0
20260506163018 11 263 0.0 6.4 0.15 0.33 0.28 92 1006.9
20260506161511 11 257 0.0 6.4 0.18 0.30 0.23 91 1007.0
20260506160011 11 257 0.0 6.4 0.18 0.25 0.20 90 1006.9
20260506154508 11 261 0.0 11.3 0.20 0.28 0.20 89 1006.8
20260506153007 12 265 1.6 11.3 0.15 0.23 0.15 86 1006.7
20260506151508 12 273 0.0 16.1 0.08 0.15 0.08 82 1006.9
20260506150007 15 274 4.8 14.5 0.03 0.10 0.03 78 1006.6
20260506144507 16 274 0.0 4.8 0.00 0.20 0.00 72 1006.2
20260506143006 16 269 0.0 0.0 0.00 0.20 0.00 67 1006.1
20260506141504 17 270 0.0 4.8 0.00 0.20 0.00 62 1006.1
20260506140004 17 269 0.0 4.8 0.00 0.20 0.00 60 1006.0